This is the latest recevied weather packets stored in our database for station/object NA9VY-8. If no packets are shown the sender has not sent any weather packets the latest 10 day(s).
| Time | Temp. | Humidity | Pressure | Rain* | Wind** | Luminosity | Snow |
|---|---|---|---|---|---|---|---|
| 1777733450 | 7.78° C | 58% | 1025.5 hPa | 0 mm | - | 83 W/m² | - |
| 1777733146 | 8.33° C | 65% | 1025.5 hPa | 0 mm | - | 64 W/m² | - |
| 1777732843 | 8.33° C | 63% | 1025.5 hPa | 0 mm | - | 72 W/m² | - |
| 1777732539 | 8.33° C | 62% | 1025.4 hPa | 0 mm | - | 93 W/m² | - |
| 1777732238 | 8.33° C | 63% | 1025.5 hPa | 0 mm | - | 127 W/m² | - |
| 1777731934 | 8.89° C | 61% | 1025.7 hPa | 0 mm | - | 180 W/m² | - |
| 1777731631 | 8.89° C | 61% | 1025.5 hPa | 0 mm | - | 321 W/m² | - |
| 1777731329 | 8.89° C | 65% | 1025.7 hPa | 0 mm | - | 431 W/m² | - |
| 1777731026 | 8.89° C | 60% | 1025.5 hPa | 0 mm | - | 214 W/m² | - |
| 1777730725 | 9.44° C | 60% | 1025.4 hPa | 0 mm | - | 329 W/m² | - |
| 1777730420 | 8.89° C | 63% | 1025.6 hPa | 0 mm | - | 470 W/m² | - |
| 1777730116 | 8.89° C | 63% | 1025.6 hPa | 0 mm | - | 411 W/m² | - |
| 1777729813 | 8.89° C | 62% | 1025.6 hPa | 0 mm | - | 365 W/m² | - |
| 1777729510 | 8.33° C | 64% | 1025.6 hPa | 0 mm | - | 321 W/m² | - |
| 1777729207 | 8.33° C | 65% | 1025.7 hPa | 0 mm | - | 329 W/m² | - |
| 1777728903 | 8.33° C | 64% | 1025.9 hPa | 0 mm | - | 307 W/m² | - |
| 1777728600 | 8.33° C | 63% | 1025.9 hPa | 0 mm | - | 276 W/m² | - |
| 1777728297 | 7.78° C | 68% | 1025.8 hPa | 0 mm | - | 290 W/m² | - |
| 1777727995 | 7.22° C | 68% | 1025.7 hPa | 0 mm | - | 259 W/m² | - |
| 1777727691 | 7.78° C | 70% | 1025.8 hPa | 0 mm | - | 262 W/m² | - |
| 1777727388 | 7.22° C | 72% | 1025.9 hPa | 0 mm | - | 248 W/m² | - |
| 1777726783 | 6.11° C | 75% | 1025.7 hPa | 0 mm | - | 137 W/m² | - |
| 1777726480 | 6.11° C | 75% | 1025.8 hPa | 0 mm | - | 104 W/m² | - |
| 1777726177 | 6.11° C | 77% | 1025.7 hPa | 0 mm | - | 86 W/m² | - |
| 1777725873 | 6.11° C | 77% | 1025.5 hPa | 0 mm | - | 77 W/m² | - |
* Rain latest hour (hover to see other rain measurements)
** Current wind speed in m/s (hover to see current wind gust speed)